sat.trackr.live / text

‹ back to catalog

PELICAN-4

NORAD 65316 · 2025-188B

PAYLOAD ACTIVE UNKNOWN

§ Identity

Operator
Country
US
Launch date
2025-08-26
Launch site
AFWTR
Launch vehicle
Mass (kg)
RCS (m²)

Purposes: earth_obs

External: N2YO · Heavens-Above · Gunter

§ Orbital elements

Epoch: 2026-09-19T10:22:23.531520Z

Period
93.44 min
Inclination
97.1933°
Eccentricity
0.0002578
Mean motion
15.41052017 rev/d
Perigee alt
441.2 km
Apogee alt
444.8 km
Semi-major
6,821.1 km
B*
1.4157e-4
RAAN
337.2905°
Arg perigee
107.9463°
Mean anomaly
252.2065°
Rev number
5,982

§ Raw data

PELICAN-41 65316U 25188B   26262.43221680  .00005764  00000+0  14157-3 0  99912 65316  97.1933 337.2905 0002578 107.9463 252.2065 15.41052017 59828

JSON: /api/v1/satellites/65316 · /tle

For live sub-satellite position, see the globe view (requires WebGL).

§ Visibility from observer

Set your observer location to see the next 7 days of passes ≥ 10°. The values pass through the URL so the page stays shareable.

No JS? Fill the form by hand. The geolocation button needs JavaScript.